Content
SEND FEEDBACK

Daily
Averages
Monthly
Summary
United States of America

ANN ARBOR, MICHIGAN


Home > North America > United States > Michigan
Elevation: 759 feet     Latitude: 42 17N     Longitude: 083 43W

WEATHER
 
SELECT A DAY
Number of Records: 203,899;   Date Range: 1/1/95 - 8/28/14
 
SHARE

PRINT THIS DATA

[ ← Previous Day ]
WEATHER ALMANAC - APRIL 1, 2014
[ Next Day → ]
[ °C ]   °F
Weather ElementAverageHighLow
Temperature48.6 °F59 °F (12:53 pm)37 °F (11:53 pm)
Dewpoint32.3 °F41 °F (10:53 am)26.1 °F (10:53 pm)
Humidity54.1 %68 % (5:53 am)39 % (12:53 pm)
Barometer29.87 in30.03 in (11:53 pm)29.73 in (11:53 am)
Wind Speed14.9 mph28.8 mph (12:53 pm)
Wind Gust39.1 mph (11:53 am)
Weather ElementAverage
Visibility10 mi
Wind DirectionSSW (207.4 °)

Weather ElementTotal
Precipitation0.01 in
Heating Degree Days17 (Base 65)
Averaged from 23 records on April 1, 2014
WEATHER CONDITIONS BREAKOUT
WIND DIRECTION BREAKOUT
WEATHER BY HOUR - APRIL 1, 2014
[ °C ]   °F
Local TimeTemperatureDewpointHumidityBarometerVisibilityWind DirectionWind SpeedGust SpeedPrecipitationEventsConditions
1:53 AM43.0 °F27.0 °F53 %29.98 in10.0 miSE (130°)5.8 mphOvercast
2:53 AM44.1 °F30.0 °F58 %29.96 in10.0 miCalm0.00 inOvercast
3:53 AM44.1 °F30.0 °F58 %29.93 in10.0 miESE (110°)5.8 mphMostly Cloudy
4:53 AM44.1 °F30.0 °F58 %29.92 in10.0 miSSE (150°)4.6 mphOvercast
5:53 AM44.1 °F34.0 °F68 %29.88 in10.0 miSSE (150°)8.1 mph0.01 inOvercast
6:53 AM46.9 °F36.0 °F66 %29.83 in10.0 miSSE (150°)8.1 mph0.00 inOvercast
7:53 AM46.9 °F37.0 °F68 %29.81 in10.0 miSSE (150°)5.8 mphOvercast
8:53 AM51.1 °F39.0 °F63 %29.80 in10.0 miSouth (170°)9.2 mphOvercast
9:53 AM54.0 °F39.0 °F57 %29.78 in10.0 miSouth (190°)10.4 mphOvercast
10:53 AM57.9 °F41.0 °F53 %29.76 in10.0 miSSW (210°)16.1 mph23.0 mphPartly Cloudy
11:53 AM57.9 °F39.0 °F49 %29.73 in10.0 miSW (220°)26.5 mph39.1 mphOvercast
12:53 PM59.0 °F34.0 °F39 %29.75 in10.0 miWSW (240°)28.8 mph36.8 mphPartly Cloudy
1:53 PM55.9 °F32.0 °F40 %29.76 in10.0 miSW (230°)21.9 mph34.5 mphPartly Cloudy
2:53 PM55.9 °F33.1 °F42 %29.79 in10.0 miWSW (240°)28.8 mph36.8 mphScattered Clouds
3:53 PM55.0 °F33.1 °F43 %29.79 in10.0 miWSW (250°)23.0 mph34.5 mphScattered Clouds
4:53 PM52.0 °F30.9 °F45 %29.82 in10.0 miWSW (250°)26.5 mph32.2 mphMostly Cloudy
5:53 PM51.1 °F30.0 °F44 %29.85 in10.0 miWest (270°)23.0 mph32.2 mphScattered Clouds
6:53 PM48.0 °F28.9 °F48 %29.88 in10.0 miWest (270°)23.0 mph32.2 mphClear
7:53 PM46.9 °F28.9 °F50 %29.91 in10.0 miWest (260°)17.3 mphClear
8:53 PM43.0 °F28.9 °F58 %29.95 in10.0 miWNW (290°)10.4 mphClear
9:53 PM41.0 °F28.0 °F60 %29.98 in10.0 miWNW (290°)12.7 mphClear
10:53 PM39.0 °F26.1 °F60 %30.01 in10.0 miWest (280°)16.1 mph21.9 mphClear
11:53 PM37.0 °F26.1 °F65 %30.03 in10.0 miWest (270°)11.5 mphClear
Hourly data recorded from KARB, located miles away from Ann Arbor, Michigan







STORIES FROM OUR PARTNERS